This is the latest recevied weather packets stored in our database for station/object KF5WOE-13. If no packets are shown the sender has not sent any weather packets the latest 1 day(s).
| Time | Temp. | Humidity | Pressure | Rain* | Wind** | Luminosity | Snow |
|---|---|---|---|---|---|---|---|
| 1778037417 | 60° C | - | - | 0 mm | 2.24 m/s, 308° | - | - |
| 1778037115 | 60° C | - | - | 0 mm | 5.81 m/s, 19° | - | - |
| 1778036813 | 60° C | - | - | 0 mm | 3.13 m/s, 35° | - | - |
| 1778036509 | 60° C | - | - | 0 mm | 4.92 m/s, 357° | - | - |
| 1778036206 | 60° C | - | - | 0 mm | 3.58 m/s, 18° | - | - |
| 1778035902 | 60° C | - | - | 0 mm | 4.92 m/s, 4° | - | - |
| 1778035600 | 60° C | - | - | 0 mm | 4.92 m/s, 356° | - | - |
| 1778035296 | 60° C | - | - | 0 mm | 2.68 m/s, 316° | - | - |
| 1778034992 | 60° C | - | - | 0 mm | 4.47 m/s, 6° | - | - |
| 1778034690 | 60° C | - | - | 0 mm | 4.47 m/s, 14° | - | - |
| 1778034387 | 60° C | - | - | 0 mm | 4.47 m/s, 2° | - | - |
| 1778034084 | 60° C | - | - | 0 mm | 4.02 m/s, 342° | - | - |
| 1778033782 | 60° C | - | - | 0 mm | 3.13 m/s, 28° | - | - |
| 1778033479 | 60° C | - | - | 0 mm | 4.02 m/s, 358° | - | - |
| 1778033176 | 60° C | - | - | 0 mm | 3.13 m/s, 16° | - | - |
| 1778032874 | 60° C | - | - | 0 mm | 4.92 m/s, 15° | - | - |
| 1778032571 | 60° C | - | - | 0 mm | 3.13 m/s, 7° | - | - |
| 1778032268 | 60° C | - | - | 0 mm | 3.13 m/s, 343° | - | - |
| 1778031966 | 60° C | - | - | 0 mm | 4.02 m/s, 32° | - | - |
| 1778031661 | 60° C | - | - | 0 mm | 0 m/s | - | - |
| 1778031359 | 60° C | - | - | 0 mm | 0.45 m/s, 16° | - | - |
| 1778031055 | 60° C | - | - | 0 mm | 3.13 m/s, 6° | - | - |
| 1778030751 | 60° C | - | - | 0 mm | 2.68 m/s, 28° | - | - |
| 1778030448 | 60° C | - | - | 0 mm | 3.58 m/s, 3° | - | - |
| 1778030146 | 60° C | - | - | 0 mm | 4.92 m/s, 10° | - | - |
* Rain latest hour (hover to see other rain measurements)
** Current wind speed in m/s (hover to see current wind gust speed)